Location: Unspecified
(47.6579°N, 23.5637°E)
Time: 13:10:39
(UTC+02:00)

Envisat - Pass Details

Date: 09 December 2021
Orbit: 764 x 766 km, 98.2° (Epoch: 23 January)

Event Time Altitude Azimuth Distance (km) Brightness Sun altitude
Rises 17:22:40 0° 195° (SSW) 3,219 6.9 -7.9°
Reaches altitude 10° 17:25:15 10° 207° (SSW) 2,298 6.3 -8.3°
Maximum altitude 17:29:36 29° 266° (W) 1,393 5.2 -9.0°
Drops below altitude 10° 17:34:00 10° 326° (NW) 2,314 5.6 -9.7°
Sets 17:36:38 0° 337° (NNW) 3,245 6.3 -10.1°
